Homer, AK

1:24 PM AKST on February 08, 2016 (GMT -0900)
Homer

Weather History for PAHO - October, 2011

Change the Weather History Date:

Monday, October 31, 2011

  Actual Average Record
Temperature  
Mean Temperature 29 °F -  
Max Temperature 33 °F 39 °F - (-1)
Min Temperature 26 °F 25 °F - (-1)
Degree Days  
Heating Degree Days 36    
Moisture  
Dew Point 28 °F    
Average Humidity 94    
Maximum Humidity 100    
Minimum Humidity 72    
Precipitation  
Precipitation 0.07 in - - ()
Sea Level Pressure  
Sea Level Pressure 29.62 in    
Wind  
Wind Speed 4 mph (NE)    
Max Wind Speed 10 mph    
Max Gust Speed -    
Visibility 7 miles    
Events Fog , Snow    
Averages and records for this station are not official NWS values.
T = Trace of Precipitation, MM = Missing Value Source: NWS Daily Summary

Daily Weather History Graph

Daily Weather History Graph

Search for Another Location

Airport or City:

Trip Planner

Search our weather history database for the weather conditions in past years. The results will help you decide how hot, cold, wet, or windy it might be!

Date:

Astronomy

Oct. 31, 2011 Rise Set
Actual Time 9:24 AM AKDT 6:13 PM AKDT
Civil Twilight 8:39 AM AKDT 6:58 PM AKDT
Nautical Twilight 7:50 AM AKDT 7:47 PM AKDT
Astronomical Twilight 7:03 AM AKDT 8:34 PM AKDT
Moon 3:11 PM AKDT (10/31) 10:32 PM AKDT (10/31)
Length of Visible Light 10h 18m
Length of Day
8h 49m
Waxing Crescent, 31% of the Moon is Illuminated
Oct 31
Waxing Crescent
Nov 2
First Quarter
Nov 10
Full
Nov 18
Last Quarter
Nov 24
New

Hourly Weather History & Observations

Time (AKDT) Temp. Windchill Dew Point Humidity Pressure Visibility Wind Dir Wind Speed Gust Speed Precip Events Conditions
12:53 AM 27.0 °F 18.7 °F 21.0 °F 78% 29.69 in 10.0 mi ENE 8.1 mph - N/A   Clear
1:53 AM 26.1 °F 18.4 °F 19.9 °F 78% 29.68 in 10.0 mi NE 6.9 mph - N/A   Scattered Clouds
2:53 AM 30.0 °F 23.2 °F 21.9 °F 72% 29.64 in 10.0 mi East 6.9 mph - N/A   Overcast
3:53 AM 30.0 °F - 23.0 °F 75% 29.62 in 10.0 mi Calm Calm - N/A   Overcast
4:04 AM 30.2 °F - 23.0 °F 75% 29.62 in 9.0 mi Calm Calm - N/A   Overcast
4:20 AM 30.2 °F - 24.8 °F 80% 29.62 in 1.8 mi Calm Calm - N/A   Haze
4:39 AM 28.4 °F - 24.8 °F 86% 29.63 in 1.0 mi Calm Calm - 0.01 in   Mist
4:53 AM 28.9 °F - 28.0 °F 96% 29.64 in 1.0 mi Calm Calm - 0.02 in   Mist
5:23 AM 28.4 °F 24.6 °F 28.4 °F 100% 29.64 in 2.0 mi East 3.5 mph - 0.01 in   Overcast
5:50 AM 28.4 °F 23.3 °F 28.4 °F 100% 29.63 in 3.0 mi ENE 4.6 mph - 0.02 in Snow Light Snow
5:53 AM 28.9 °F 22.8 °F 28.9 °F 100% 29.64 in 3.0 mi ENE 5.8 mph - 0.02 in Snow Light Snow
6:53 AM 28.0 °F 21.7 °F 28.0 °F 100% 29.62 in 4.0 mi NE 5.8 mph - 0.00 in Snow Light Snow
7:12 AM 28.4 °F 21.2 °F 28.4 °F 100% 29.62 in 9.0 mi NE 6.9 mph - 0.00 in   Overcast
7:53 AM 28.0 °F 24.2 °F 28.0 °F 100% 29.62 in 10.0 mi NE 3.5 mph - 0.00 in   Overcast
8:53 AM 28.9 °F 23.9 °F 27.0 °F 92% 29.62 in 10.0 mi NE 4.6 mph - N/A   Overcast
9:23 AM 30.2 °F 21.3 °F 28.4 °F 93% 29.62 in 3.0 mi ENE 10.4 mph - 0.00 in Snow Light Snow
9:36 AM 30.2 °F 22.6 °F 28.4 °F 93% 29.62 in 1.0 mi ENE 8.1 mph - 0.00 in Snow Light Snow
9:53 AM 28.9 °F 25.2 °F 28.9 °F 100% 29.63 in 1.0 mi NNE 3.5 mph - 0.01 in Snow Light Snow
10:09 AM 28.4 °F 24.6 °F 28.4 °F 100% 29.62 in 2.0 mi NNE 3.5 mph - 0.00 in Snow Light Snow
10:14 AM 28.4 °F 24.6 °F 28.4 °F 100% 29.62 in 3.0 mi NNE 3.5 mph - 0.00 in Snow Light Snow
10:28 AM 28.4 °F 24.6 °F 28.4 °F 100% 29.62 in 9.0 mi NNE 3.5 mph - 0.00 in   Overcast
10:53 AM 30.0 °F - 28.9 °F 96% 29.63 in 10.0 mi Calm Calm - 0.00 in   Overcast
11:53 AM 30.9 °F - 28.9 °F 92% 29.64 in 4.0 mi Calm Calm - N/A   Overcast
12:53 PM 30.9 °F 27.5 °F 28.9 °F 92% 29.64 in 10.0 mi NE 3.5 mph - N/A   Overcast
1:50 PM 32.0 °F - 30.2 °F 93% 29.64 in 10.0 mi Calm Calm - N/A   Overcast
1:53 PM 32.0 °F - 30.0 °F 92% 29.64 in 10.0 mi Calm Calm - N/A   Overcast
2:15 PM 32.0 °F - 30.2 °F 93% 29.63 in 1.5 mi Calm Calm - N/A   Overcast
2:18 PM 30.2 °F - 30.2 °F 100% 29.63 in 0.8 mi Calm Calm - 0.01 in   Overcast
2:24 PM 30.2 °F 26.7 °F 30.2 °F 100% 29.63 in 0.5 mi WNW 3.5 mph - 0.01 in Fog Light Freezing Fog
2:41 PM 30.2 °F - 30.2 °F 100% 29.63 in 2.0 mi Calm Calm - 0.02 in   Mist
2:53 PM 32.0 °F - 32.0 °F 100% 29.63 in 4.0 mi Calm Calm - 0.02 in   Overcast
3:04 PM 32.0 °F - 32.0 °F 100% 29.62 in 3.0 mi Calm Calm - N/A   Overcast
3:34 PM 32.0 °F - 30.2 °F 93% 29.62 in 10.0 mi Calm Calm - N/A   Overcast
3:53 PM 32.0 °F - 30.0 °F 92% 29.63 in 10.0 mi Calm Calm - N/A   Overcast
4:20 PM 32.0 °F 24.8 °F 30.2 °F 93% 29.62 in 10.0 mi NE 8.1 mph - N/A   Overcast
4:28 PM 32.0 °F 26.4 °F 30.2 °F 93% 29.62 in 10.0 mi NE 5.8 mph - N/A   Overcast
4:37 PM 30.2 °F 23.4 °F 30.2 °F 100% 29.62 in 10.0 mi ENE 6.9 mph - N/A   Overcast
4:53 PM 30.9 °F 24.3 °F 30.9 °F 100% 29.62 in 10.0 mi NE 6.9 mph - N/A   Overcast
5:00 PM 30.2 °F 22.6 °F 30.2 °F 100% 29.61 in 10.0 mi ENE 8.1 mph - N/A   Overcast
5:31 PM 30.2 °F 24.3 °F 30.2 °F 100% 29.60 in 10.0 mi NE 5.8 mph - N/A   Overcast
5:53 PM 30.9 °F 26.2 °F 30.0 °F 96% 29.60 in 10.0 mi NNE 4.6 mph - N/A   Overcast
6:53 PM 30.9 °F 23.5 °F 30.0 °F 96% 29.60 in 10.0 mi NE 8.1 mph - N/A   Overcast
7:37 PM 30.2 °F 21.9 °F 28.4 °F 93% 29.58 in 10.0 mi NE 9.2 mph - N/A   Overcast
7:53 PM 30.0 °F 23.2 °F 28.9 °F 96% 29.59 in 10.0 mi NE 6.9 mph - N/A   Overcast
8:53 PM 28.9 °F 22.8 °F 28.0 °F 96% 29.57 in 10.0 mi NE 5.8 mph - N/A   Overcast
9:53 PM 30.0 °F 23.2 °F 28.0 °F 92% 29.57 in 10.0 mi NE 6.9 mph - N/A   Overcast
10:53 PM 28.9 °F 21.9 °F 27.0 °F 92% 29.55 in 10.0 mi NE 6.9 mph - N/A   Overcast
11:53 PM 28.9 °F 22.8 °F 28.0 °F 96% 29.53 in 6.0 mi NE 5.8 mph - N/A   Overcast